Weather History for Oakes, ND

Change the Weather History Date:

Friday, October 19, 2012

  Actual Average (KABR) Record (KABR)
Temperature  
Mean Temperature 39 °F 44 °F  
Max Temperature 41 °F 56 °F 86 °F (1947)
Min Temperature 37 °F 32 °F 10 °F (1917)
Degree Days  
Heating Degree Days 26 21  
Month to date heating degree days 326  
Since 1 July heating degree days 600  
Cooling Degree Days 0 0  
Month to date cooling degree days 0  
Year to date cooling degree days 523  
Moisture  
Dew Point 39 °F    
Average Humidity 98    
Maximum Humidity 100    
Minimum Humidity 93    
Precipitation  
Precipitation 0.01 in 0.07 in 1.50 in (1908)
Month to date precipitation 1.37  
Year to date precipitation 19.85  
Snow  
Snow 0.00 in - - ()
Month to date snowfall  
Since 1 July snowfall  
Snow Depth -    
Sea Level Pressure  
Sea Level Pressure 29.77 in    
Wind  
Wind Speed 23 mph (NNW)    
Max Wind Speed 36 mph    
Max Gust Speed 47 mph    
Visibility 10 miles    
Events Rain    
T = Trace of Precipitation, MM = Missing Value Source: NWS Daily Summary

Daily Weather History Graph

Daily Weather History Graph

Search for Another Location

Airport:

Trip Planner

Search our weather history database for the weather conditions in past years. The results will help you decide how hot, cold, wet, or windy it might be!

Date:

Astronomy

Oct. 19, 2012 Rise Set
Actual Time 7:55 AM CDT 6:37 PM CDT
Civil Twilight 7:25 AM CDT 7:08 PM CDT
Nautical Twilight 6:50 AM CDT 7:43 PM CDT
Astronomical Twilight 6:15 AM CDT 8:17 PM CDT
Moon 12:51 PM CDT (10/19) 10:06 PM CDT (10/19)
Length of Visible Light 11h 43m
Length of Day
10h 42m
Waxing Crescent, 24% of the Moon is Illuminated
Oct 19
Waxing Crescent
Oct 21
First Quarter
Oct 29
Full
Nov 6
Last Quarter
Nov 13
New

Hourly Weather History & Observations

Time (CDT) Temp. Windchill Dew Point Humidity Pressure Visibility Wind Dir Wind Speed Gust Speed Precip Events Conditions
1:35 AM 39.2 °F 27.0 °F 39.2 °F 100% 29.69 in 9.0 mi NNW 32.2 mph 46.0 mph N/A   Overcast
1:55 AM 39.2 °F 26.5 °F 39.2 °F 100% 29.69 in 8.0 mi NNW 35.7 mph 47.2 mph 0.01 in Rain Light Rain
2:15 AM 39.2 °F 27.0 °F 39.2 °F 100% 29.70 in 10.0 mi NNW 32.2 mph 41.4 mph N/A   Overcast
2:35 AM 39.2 °F 27.0 °F 37.4 °F 93% 29.70 in 10.0 mi NNW 32.2 mph 42.6 mph N/A   Overcast
2:55 AM 39.2 °F 27.2 °F 37.4 °F 93% 29.72 in 10.0 mi NNW 31.1 mph 36.8 mph N/A   Overcast
3:15 AM 39.2 °F 27.4 °F 37.4 °F 93% 29.72 in 10.0 mi NNW 29.9 mph 40.3 mph N/A   Overcast
3:35 AM 39.2 °F 27.0 °F 39.2 °F 100% 29.72 in 10.0 mi NNW 32.2 mph 40.3 mph N/A   Overcast
3:55 AM 39.2 °F 26.6 °F 39.2 °F 100% 29.73 in 10.0 mi NNW 34.5 mph 41.4 mph N/A   Overcast
4:15 AM 39.2 °F 27.0 °F 39.2 °F 100% 29.73 in 10.0 mi NNW 32.2 mph 41.4 mph N/A   Overcast
4:35 AM 39.2 °F 27.2 °F 39.2 °F 100% 29.74 in 10.0 mi NNW 31.1 mph 40.3 mph N/A   Overcast
4:55 AM 39.2 °F 27.6 °F 39.2 °F 100% 29.75 in 10.0 mi NNW 28.8 mph 39.1 mph N/A   Overcast
5:15 AM 39.2 °F 28.0 °F 39.2 °F 100% 29.75 in 10.0 mi NNW 26.5 mph 36.8 mph N/A   Overcast
5:35 AM 39.2 °F 28.0 °F 39.2 °F 100% 29.76 in 10.0 mi NNW 26.5 mph 34.5 mph N/A   Overcast
5:55 AM 39.2 °F 28.3 °F 39.2 °F 100% 29.76 in 10.0 mi NNW 25.3 mph 35.7 mph N/A   Overcast
6:15 AM 39.2 °F 27.4 °F 37.4 °F 93% 29.76 in 10.0 mi NNW 29.9 mph 38.0 mph N/A   Overcast
6:35 AM 39.2 °F 27.2 °F 37.4 °F 93% 29.76 in 10.0 mi NNW 31.1 mph 34.5 mph N/A   Overcast
6:55 AM 39.2 °F 29.3 °F 37.4 °F 93% 29.76 in 10.0 mi NNW 20.7 mph 35.7 mph N/A   Overcast
7:15 AM 39.2 °F 28.0 °F 39.2 °F 100% 29.76 in 10.0 mi NNW 26.5 mph 38.0 mph N/A   Overcast
7:35 AM 39.2 °F 27.6 °F 39.2 °F 100% 29.77 in 10.0 mi NNW 28.8 mph 33.4 mph N/A   Overcast
7:55 AM 39.2 °F 28.5 °F 39.2 °F 100% 29.77 in 10.0 mi NNW 24.2 mph 29.9 mph N/A   Overcast
8:15 AM 39.2 °F 28.5 °F 39.2 °F 100% 29.78 in 10.0 mi NNW 24.2 mph 29.9 mph N/A   Overcast
8:35 AM 37.4 °F 26.4 °F 37.4 °F 100% 29.78 in 10.0 mi NW 23.0 mph 27.6 mph N/A   Overcast
8:55 AM 37.4 °F 26.6 °F 37.4 °F 100% 29.79 in 8.0 mi NW 21.9 mph 28.8 mph N/A   Overcast
9:15 AM 37.4 °F 26.6 °F 37.4 °F 100% 29.79 in 7.0 mi NW 21.9 mph 29.9 mph N/A   Overcast
9:35 AM 37.4 °F 27.2 °F 37.4 °F 100% 29.79 in 9.0 mi NNW 19.6 mph 28.8 mph N/A   Overcast
9:55 AM 37.4 °F 27.2 °F 37.4 °F 100% 29.80 in 10.0 mi NNW 19.6 mph 26.5 mph N/A   Overcast
10:15 AM 37.4 °F 26.6 °F 37.4 °F 100% 29.80 in 10.0 mi NNW 21.9 mph 26.5 mph N/A   Overcast
10:35 AM 39.2 °F 28.7 °F 39.2 °F 100% 29.80 in 10.0 mi NNW 23.0 mph 26.5 mph N/A   Overcast
10:55 AM 39.2 °F 29.6 °F 39.2 °F 100% 29.80 in 10.0 mi NNW 19.6 mph - N/A   Overcast
11:15 AM 39.2 °F 29.6 °F 39.2 °F 100% 29.80 in 10.0 mi NW 19.6 mph 24.2 mph N/A   Overcast
11:35 AM 39.2 °F 28.7 °F 39.2 °F 100% 29.81 in 8.0 mi NW 23.0 mph 27.6 mph N/A   Overcast
11:55 AM 39.2 °F 29.3 °F 39.2 °F 100% 29.81 in 5.0 mi NW 20.7 mph 24.2 mph N/A   Overcast
12:15 PM 39.2 °F 30.2 °F 39.2 °F 100% 29.81 in 5.0 mi NNW 17.3 mph 27.6 mph N/A   Overcast
12:35 PM 39.2 °F 29.8 °F 39.2 °F 100% 29.80 in 9.0 mi NNW 18.4 mph 27.6 mph N/A   Overcast
12:55 PM 41.0 °F 31.9 °F 41.0 °F 100% 29.80 in 10.0 mi NNW 19.6 mph 25.3 mph N/A   Overcast
1:15 PM 41.0 °F 31.9 °F 41.0 °F 100% 29.79 in 10.0 mi NNW 19.6 mph 23.0 mph N/A   Overcast
1:35 PM 41.0 °F 32.5 °F 39.2 °F 93% 29.79 in 10.0 mi NNW 17.3 mph 23.0 mph N/A   Overcast
1:55 PM 41.0 °F 32.2 °F 39.2 °F 93% 29.78 in 10.0 mi NNW 18.4 mph 23.0 mph N/A   Overcast
2:15 PM 41.0 °F 32.8 °F 39.2 °F 93% 29.78 in 10.0 mi NNW 16.1 mph 20.7 mph N/A   Overcast
2:35 PM 41.0 °F 33.1 °F 39.2 °F 93% 29.77 in 10.0 mi NW 15.0 mph - N/A   Overcast
2:55 PM 41.0 °F 33.1 °F 39.2 °F 93% 29.77 in 10.0 mi NW 15.0 mph - N/A   Overcast
3:15 PM 41.0 °F 34.3 °F 39.2 °F 93% 29.76 in 8.0 mi NW 11.5 mph - N/A   Overcast
3:35 PM 41.0 °F 33.9 °F 39.2 °F 93% 29.77 in 9.0 mi NNW 12.7 mph - N/A   Overcast
3:55 PM 41.0 °F 33.1 °F 41.0 °F 100% 29.78 in 6.0 mi NW 15.0 mph - N/A   Overcast
4:15 PM 41.0 °F 33.5 °F 39.2 °F 93% 29.78 in 10.0 mi NNW 13.8 mph - N/A   Overcast
4:35 PM 41.0 °F 33.9 °F 39.2 °F 93% 29.77 in 10.0 mi NNW 12.7 mph - N/A   Overcast
4:55 PM 41.0 °F 34.7 °F 39.2 °F 93% 29.77 in 10.0 mi NNW 10.4 mph - N/A   Overcast
5:15 PM 41.0 °F 34.3 °F 39.2 °F 93% 29.78 in 10.0 mi NNW 11.5 mph - N/A   Overcast
5:35 PM 41.0 °F 36.4 °F 39.2 °F 93% 29.77 in 10.0 mi NNW 6.9 mph - N/A   Overcast
5:55 PM 41.0 °F 35.2 °F 39.2 °F 93% 29.78 in 10.0 mi NNW 9.2 mph - N/A   Overcast
6:15 PM 41.0 °F 36.4 °F 39.2 °F 93% 29.77 in 9.0 mi NNW 6.9 mph - N/A   Overcast
6:35 PM 41.0 °F 36.4 °F 41.0 °F 100% 29.78 in 10.0 mi North 6.9 mph - N/A   Overcast
6:55 PM 41.0 °F 37.1 °F 41.0 °F 100% 29.78 in 10.0 mi NNW 5.8 mph - N/A   Overcast
7:15 PM 41.0 °F 38.0 °F 41.0 °F 100% 29.78 in 10.0 mi NNW 4.6 mph - N/A   Overcast
7:35 PM 41.0 °F 37.1 °F 41.0 °F 100% 29.76 in 10.0 mi NNE 5.8 mph - N/A   Overcast
7:55 PM 39.2 °F - 39.2 °F 100% 29.76 in 10.0 mi Calm Calm - N/A   Overcast
8:15 PM 39.2 °F - 39.2 °F 100% 29.77 in 10.0 mi Calm Calm - N/A   Overcast
8:35 PM 39.2 °F - 39.2 °F 100% 29.77 in 10.0 mi Calm Calm - N/A   Overcast
8:55 PM 41.0 °F - 41.0 °F 100% 29.77 in 10.0 mi Calm Calm - N/A   Overcast
9:15 PM 41.0 °F - 41.0 °F 100% 29.77 in 10.0 mi Calm Calm - N/A   Overcast
9:35 PM 41.0 °F - 41.0 °F 100% 29.77 in 10.0 mi Calm Calm - N/A   Overcast
9:55 PM 41.0 °F 39.0 °F 41.0 °F 100% 29.78 in 10.0 mi SW 3.5 mph - N/A   Unknown
10:15 PM 41.0 °F - 41.0 °F 100% 29.77 in 10.0 mi Calm Calm - N/A   Overcast
10:35 PM 39.2 °F 37.0 °F 39.2 °F 100% 29.76 in 10.0 mi SE 3.5 mph - N/A   Overcast
10:55 PM 39.2 °F 37.0 °F 39.2 °F 100% 29.76 in 10.0 mi South 3.5 mph - N/A   Overcast
11:15 PM 39.2 °F 35.9 °F 39.2 °F 100% 29.75 in 10.0 mi SE 4.6 mph - N/A   Overcast
11:35 PM 39.2 °F 37.0 °F 39.2 °F 100% 29.75 in 10.0 mi SSE 3.5 mph - N/A   Overcast
11:55 PM 39.2 °F 37.0 °F 39.2 °F 100% 29.75 in 10.0 mi South 3.5 mph - N/A   Overcast